Time,TemperatureF,DewpointF,PressureIn,WindDirection,WindDirectionDegrees,WindSpeedMPH,WindSpeedGustMPH,Humidity,HourlyPrecipIn,Conditions,Clouds,dailyrainin,SolarRadiationWatts/m^2,SoftwareType,DateUTC
2013-01-16 00:02:00,20.5,14.7,30.17,South,169,6.0,10.0,78,0.00,,,0.00,0,Wunderground v.1.15,2013-01-16 06:02:00,
2013-01-16 00:07:00,20.4,14.6,30.17,South,170,9.0,11.0,78,0.00,,,0.00,0,Wunderground v.1.15,2013-01-16 06:07:00,
2013-01-16 00:12:00,20.4,14.3,30.17,SSE,168,6.0,11.0,77,0.00,,,0.00,0,Wunderground v.1.15,2013-01-16 06:12:00,
2013-01-16 00:17:00,20.4,14.3,30.17,South,188,8.0,11.0,77,0.00,,,0.00,0,Wunderground v.1.15,2013-01-16 06:17:00,
2013-01-16 00:22:00,20.3,14.5,30.16,SSE,167,6.0,11.0,78,0.00,,,0.00,0,Wunderground v.1.15,2013-01-16 06:22:00,
2013-01-16 00:27:00,20.4,14.6,30.16,SSE,163,10.0,13.0,78,0.00,,,0.00,0,Wunderground v.1.15,2013-01-16 06:27:00,
2013-01-16 00:32:00,20.4,14.3,30.16,South,174,7.0,12.0,77,0.00,,,0.00,0,Wunderground v.1.15,2013-01-16 06:32:00,
2013-01-16 00:37:00,20.5,14.4,30.16,South,183,4.0,12.0,77,0.00,,,0.00,0,Wunderground v.1.15,2013-01-16 06:37:00,
2013-01-16 00:42:00,20.4,14.3,30.16,South,172,9.0,11.0,77,0.00,,,0.00,0,Wunderground v.1.15,2013-01-16 06:42:00,
2013-01-16 00:47:00,20.4,14.3,30.15,SSE,159,7.0,11.0,77,0.00,,,0.00,0,Wunderground v.1.15,2013-01-16 06:47:00,
2013-01-16 00:52:00,20.6,14.5,30.15,South,180,6.0,11.0,77,0.00,,,0.00,0,Wunderground v.1.15,2013-01-16 06:52:00,
2013-01-16 00:57:00,20.5,14.4,30.14,SSE,163,5.0,13.0,77,0.00,,,0.00,0,Wunderground v.1.15,2013-01-16 06:57:00,
2013-01-16 01:02:00,20.6,14.5,30.14,South,182,8.0,14.0,77,0.00,,,0.00,0,Wunderground v.1.15,2013-01-16 07:02:00,
2013-01-16 01:07:00,20.6,14.2,30.13,South,177,4.0,14.0,76,0.00,,,0.00,0,Wunderground v.1.15,2013-01-16 07:07:00,
2013-01-16 01:12:00,20.6,14.2,30.13,South,177,7.0,14.0,76,0.00,,,0.00,0,Wunderground v.1.15,2013-01-16 07:12:00,
2013-01-16 01:17:00,20.6,14.2,30.14,South,174,7.0,14.0,76,0.00,,,0.00,0,Wunderground v.1.15,2013-01-16 07:17:00,
2013-01-16 01:22:00,20.6,14.2,30.13,South,171,11.0,15.0,76,0.00,,,0.00,0,Wunderground v.1.15,2013-01-16 07:22:00,
2013-01-16 01:27:00,20.6,14.2,30.13,South,182,9.0,15.0,76,0.00,,,0.00,0,Wunderground v.1.15,2013-01-16 07:27:00,
2013-01-16 01:32:00,20.7,14.3,30.13,South,191,5.0,11.0,76,0.00,,,0.00,0,Wunderground v.1.15,2013-01-16 07:32:00,
2013-01-16 01:37:00,20.7,14.3,30.13,South,177,10.0,15.0,76,0.00,,,0.00,0,Wunderground v.1.15,2013-01-16 07:37:00,
2013-01-16 01:42:00,20.6,14.2,30.13,South,179,13.0,16.0,76,0.00,,,0.00,0,Wunderground v.1.15,2013-01-16 07:42:00,
2013-01-16 01:47:00,20.6,14.2,30.13,South,181,14.0,17.0,76,0.00,,,0.00,0,Wunderground v.1.15,2013-01-16 07:47:00,
2013-01-16 01:52:00,20.6,14.2,30.13,South,169,6.0,14.0,76,0.00,,,0.00,0,Wunderground v.1.15,2013-01-16 07:52:00,
2013-01-16 01:57:00,20.5,14.1,30.12,South,182,9.0,14.0,76,0.00,,,0.00,0,Wunderground v.1.15,2013-01-16 07:57:00,
2013-01-16 02:02:00,20.4,14.0,30.12,SSE,163,12.0,13.0,76,0.00,,,0.00,0,Wunderground v.1.15,2013-01-16 08:02:00,
2013-01-16 02:07:00,20.4,14.0,30.12,SSE,161,10.0,15.0,76,0.00,,,0.00,0,Wunderground v.1.15,2013-01-16 08:07:00,
2013-01-16 02:12:00,20.5,14.1,30.11,South,169,8.0,11.0,76,0.00,,,0.00,0,Wunderground v.1.15,2013-01-16 08:12:00,
2013-01-16 02:17:00,20.4,14.0,30.11,South,170,9.0,14.0,76,0.00,,,0.00,0,Wunderground v.1.15,2013-01-16 08:17:00,
2013-01-16 02:22:00,20.3,13.9,30.11,South,184,9.0,13.0,76,0.00,,,0.00,0,Wunderground v.1.15,2013-01-16 08:22:00,
2013-01-16 02:27:00,20.1,13.7,30.11,South,186,12.0,13.0,76,0.00,,,0.00,0,Wunderground v.1.15,2013-01-16 08:27:00,
2013-01-16 02:32:00,20.1,13.7,30.11,South,180,8.0,12.0,76,0.00,,,0.00,0,Wunderground v.1.15,2013-01-16 08:32:00,
2013-01-16 02:37:00,19.9,13.9,30.11,SSW,205,8.0,14.0,77,0.00,,,0.00,0,Wunderground v.1.15,2013-01-16 08:37:00,
2013-01-16 02:42:00,19.9,13.9,30.10,South,181,8.0,13.0,77,0.00,,,0.00,0,Wunderground v.1.15,2013-01-16 08:42:00,
2013-01-16 02:47:00,19.9,13.9,30.10,SSE,159,10.0,13.0,77,0.00,,,0.00,0,Wunderground v.1.15,2013-01-16 08:47:00,
2013-01-16 02:52:00,19.9,13.9,30.10,SSE,163,7.0,13.0,77,0.00,,,0.00,0,Wunderground v.1.15,2013-01-16 08:52:00,
2013-01-16 02:57:00,19.8,13.8,30.09,South,175,11.0,15.0,77,0.00,,,0.00,0,Wunderground v.1.15,2013-01-16 08:57:00,
2013-01-16 03:02:00,19.8,13.8,30.09,SSE,161,11.0,14.0,77,0.00,,,0.00,0,Wunderground v.1.15,2013-01-16 09:02:00,
2013-01-16 03:07:00,19.8,13.8,30.09,SSW,198,8.0,14.0,77,0.00,,,0.00,0,Wunderground v.1.15,2013-01-16 09:07:00,
2013-01-16 03:12:00,19.9,13.9,30.08,SSW,194,11.0,13.0,77,0.00,,,0.00,0,Wunderground v.1.15,2013-01-16 09:12:00,
2013-01-16 03:17:00,19.9,13.9,30.08,South,181,5.0,15.0,77,0.00,,,0.00,0,Wunderground v.1.15,2013-01-16 09:17:00,
2013-01-16 03:22:00,19.9,13.9,30.07,South,171,8.0,18.0,77,0.00,,,0.00,0,Wunderground v.1.15,2013-01-16 09:22:00,
2013-01-16 03:27:00,20.0,13.6,30.06,SSE,166,11.0,18.0,76,0.00,,,0.00,0,Wunderground v.1.15,2013-01-16 09:27:00,
2013-01-16 03:32:00,20.0,13.6,30.06,South,179,11.0,18.0,76,0.00,,,0.00,0,Wunderground v.1.15,2013-01-16 09:32:00,
2013-01-16 03:37:00,20.0,13.6,30.06,South,172,13.0,18.0,76,0.00,,,0.00,0,Wunderground v.1.15,2013-01-16 09:37:00,
2013-01-16 03:42:00,20.0,13.6,30.05,SSW,198,10.0,17.0,76,0.00,,,0.00,0,Wunderground v.1.15,2013-01-16 09:42:00,
2013-01-16 03:47:00,20.0,13.3,30.04,South,171,15.0,19.0,75,0.00,,,0.00,0,Wunderground v.1.15,2013-01-16 09:47:00,
2013-01-16 03:52:00,20.2,13.5,30.04,South,188,8.0,13.0,75,0.00,,,0.00,0,Wunderground v.1.15,2013-01-16 09:52:00,
2013-01-16 03:57:00,20.1,13.4,30.03,South,180,10.0,16.0,75,0.00,,,0.00,0,Wunderground v.1.15,2013-01-16 09:57:00,
2013-01-16 04:02:00,20.1,13.4,30.04,South,186,4.0,15.0,75,0.00,,,0.00,0,Wunderground v.1.15,2013-01-16 10:02:00,
2013-01-16 04:07:00,20.1,13.4,30.04,South,184,11.0,16.0,75,0.00,,,0.00,0,Wunderground v.1.15,2013-01-16 10:07:00,
2013-01-16 04:12:00,20.1,13.4,30.04,South,186,9.0,13.0,75,0.00,,,0.00,0,Wunderground v.1.15,2013-01-16 10:12:00,
2013-01-16 04:17:00,20.0,13.3,30.04,South,175,7.0,16.0,75,0.00,,,0.00,0,Wunderground v.1.15,2013-01-16 10:17:00,
2013-01-16 04:22:00,20.1,13.4,30.03,South,179,9.0,14.0,75,0.00,,,0.00,0,Wunderground v.1.15,2013-01-16 10:22:00,
2013-01-16 04:27:00,20.0,13.3,30.03,South,178,8.0,14.0,75,0.00,,,0.00,0,Wunderground v.1.15,2013-01-16 10:27:00,
2013-01-16 04:32:00,20.0,13.3,30.03,SSW,192,7.0,15.0,75,0.00,,,0.00,0,Wunderground v.1.15,2013-01-16 10:32:00,
2013-01-16 04:37:00,20.0,13.6,30.03,SSE,163,7.0,15.0,76,0.00,,,0.00,0,Wunderground v.1.15,2013-01-16 10:37:00,
2013-01-16 04:42:00,20.0,13.3,30.02,South,169,14.0,19.0,75,0.00,,,0.00,0,Wunderground v.1.15,2013-01-16 10:42:00,
2013-01-16 04:47:00,20.2,13.5,30.02,South,183,9.0,19.0,75,0.00,,,0.00,0,Wunderground v.1.15,2013-01-16 10:47:00,
2013-01-16 04:52:00,20.3,13.3,30.01,SSE,167,7.0,19.0,74,0.00,,,0.00,0,Wunderground v.1.15,2013-01-16 10:52:00,
2013-01-16 04:57:00,20.4,13.4,30.01,SSE,161,13.0,20.0,74,0.00,,,0.00,0,Wunderground v.1.15,2013-01-16 10:57:00,
2013-01-16 05:02:00,20.3,13.0,30.00,South,187,9.0,16.0,73,0.00,,,0.00,0,Wunderground v.1.15,2013-01-16 11:02:00,
2013-01-16 05:07:00,20.2,12.9,30.00,SSE,167,8.0,18.0,73,0.00,,,0.00,0,Wunderground v.1.15,2013-01-16 11:07:00,
2013-01-16 05:12:00,20.1,13.1,30.00,SSE,167,14.0,18.0,74,0.00,,,0.00,0,Wunderground v.1.15,2013-01-16 11:12:00,
2013-01-16 05:17:00,20.1,13.1,29.99,South,186,6.0,20.0,74,0.00,,,0.00,0,Wunderground v.1.15,2013-01-16 11:17:00,
2013-01-16 05:22:00,20.1,13.1,29.98,SSE,158,14.0,20.0,74,0.00,,,0.00,0,Wunderground v.1.15,2013-01-16 11:22:00,
2013-01-16 05:27:00,20.2,12.9,29.98,South,172,8.0,21.0,73,0.00,,,0.00,0,Wunderground v.1.15,2013-01-16 11:27:00,
2013-01-16 05:32:00,20.1,12.8,29.98,SSE,165,17.0,22.0,73,0.00,,,0.00,0,Wunderground v.1.15,2013-01-16 11:32:00,
2013-01-16 05:37:00,19.9,12.6,29.97,South,171,12.0,22.0,73,0.00,,,0.00,0,Wunderground v.1.15,2013-01-16 11:37:00,
2013-01-16 05:42:00,19.9,12.6,29.96,South,184,15.0,18.0,73,0.00,,,0.00,0,Wunderground v.1.15,2013-01-16 11:42:00,
2013-01-16 05:47:00,19.8,12.8,29.96,SSE,159,18.0,19.0,74,0.00,,,0.00,0,Wunderground v.1.15,2013-01-16 11:47:00,
2013-01-16 05:52:00,19.7,12.8,29.96,SSE,168,13.0,15.0,74,0.00,,,0.00,0,Wunderground v.1.15,2013-01-16 11:52:00,
2013-01-16 05:57:00,19.6,12.7,29.95,South,171,16.0,21.0,74,0.00,,,0.00,0,Wunderground v.1.15,2013-01-16 11:57:00,
2013-01-16 06:02:00,19.6,12.7,29.96,South,169,14.0,21.0,74,0.00,,,0.00,0,Wunderground v.1.15,2013-01-16 12:02:00,
2013-01-16 06:07:00,19.7,12.8,29.96,South,180,10.0,21.0,74,0.00,,,0.00,0,Wunderground v.1.15,2013-01-16 12:07:00,
2013-01-16 06:12:00,19.8,12.8,29.96,South,176,11.0,18.0,74,0.00,,,0.00,0,Wunderground v.1.15,2013-01-16 12:12:00,
2013-01-16 06:17:00,19.9,12.9,29.95,South,176,11.0,18.0,74,0.00,,,0.00,0,Wunderground v.1.15,2013-01-16 12:17:00,
2013-01-16 06:22:00,19.9,12.9,29.95,SSE,158,12.0,21.0,74,0.00,,,0.00,0,Wunderground v.1.15,2013-01-16 12:22:00,
2013-01-16 06:27:00,20.1,13.1,29.95,South,170,15.0,25.0,74,0.00,,,0.00,0,Wunderground v.1.15,2013-01-16 12:27:00,
2013-01-16 06:32:00,20.2,13.2,29.95,South,169,10.0,18.0,74,0.00,,,0.00,0,Wunderground v.1.15,2013-01-16 12:32:00,
2013-01-16 06:37:00,20.4,13.4,29.94,South,169,14.0,20.0,74,0.00,,,0.00,0,Wunderground v.1.15,2013-01-16 12:37:00,
2013-01-16 06:42:00,20.5,13.5,29.94,South,186,12.0,19.0,74,0.00,,,0.00,0,Wunderground v.1.15,2013-01-16 12:42:00,
2013-01-16 06:47:00,20.6,13.6,29.94,South,171,14.0,19.0,74,0.00,,,0.00,0,Wunderground v.1.15,2013-01-16 12:47:00,
2013-01-16 06:52:00,20.7,14.0,29.94,South,177,12.0,17.0,75,0.00,,,0.00,0,Wunderground v.1.15,2013-01-16 12:52:00,
2013-01-16 06:57:00,20.7,13.7,29.94,South,188,10.0,18.0,74,0.00,,,0.00,0,Wunderground v.1.15,2013-01-16 12:57:00,
2013-01-16 07:02:00,20.7,13.7,29.94,South,175,14.0,21.0,74,0.00,,,0.00,0,Wunderground v.1.15,2013-01-16 13:02:00,
2013-01-16 07:07:00,20.8,14.1,29.93,SSE,167,14.0,21.0,75,0.00,,,0.00,0,Wunderground v.1.15,2013-01-16 13:07:00,
2013-01-16 07:12:00,20.9,14.2,29.93,South,169,8.0,19.0,75,0.00,,,0.00,0,Wunderground v.1.15,2013-01-16 13:12:00,
2013-01-16 07:17:00,20.9,14.2,29.93,South,173,10.0,19.0,75,0.00,,,0.00,0,Wunderground v.1.15,2013-01-16 13:17:00,
2013-01-16 07:22:00,21.2,14.5,29.93,South,171,19.0,21.0,75,0.00,,,0.00,5,Wunderground v.1.15,2013-01-16 13:22:00,
2013-01-16 07:27:00,21.5,14.8,29.92,SSE,155,13.0,21.0,75,0.00,,,0.00,9,Wunderground v.1.15,2013-01-16 13:27:00,
2013-01-16 07:32:00,22.0,15.3,29.92,South,187,14.0,21.0,75,0.00,,,0.00,7,Wunderground v.1.15,2013-01-16 13:32:00,
2013-01-16 07:37:00,22.3,15.3,29.92,SSW,197,11.0,22.0,74,0.00,,,0.00,9,Wunderground v.1.15,2013-01-16 13:37:00,
2013-01-16 07:42:00,22.4,15.4,29.92,South,180,20.0,22.0,74,0.00,,,0.00,7,Wunderground v.1.15,2013-01-16 13:42:00,
2013-01-16 07:47:00,22.5,15.5,29.92,SSW,200,15.0,23.0,74,0.00,,,0.00,9,Wunderground v.1.15,2013-01-16 13:47:00,
2013-01-16 07:52:00,22.6,15.9,29.92,South,169,21.0,21.0,75,0.00,,,0.00,12,Wunderground v.1.15,2013-01-16 13:52:00,
2013-01-16 07:56:00,22.9,15.8,29.92,SSW,198,17.0,28.0,74,0.00,,,0.00,21,Wunderground v.1.15,2013-01-16 13:56:00,
2013-01-16 08:01:00,23.1,16.0,29.92,South,173,14.0,19.0,74,0.00,,,0.00,28,Wunderground v.1.15,2013-01-16 14:01:00,
2013-01-16 08:06:00,23.2,16.1,29.92,South,187,23.0,23.0,74,0.00,,,0.00,28,Wunderground v.1.15,2013-01-16 14:06:00,
2013-01-16 08:11:00,23.4,16.3,29.92,SE,143,14.0,19.0,74,0.00,,,0.00,32,Wunderground v.1.15,2013-01-16 14:11:00,
2013-01-16 08:16:00,23.5,16.4,29.92,South,184,8.0,22.0,74,0.00,,,0.00,30,Wunderground v.1.15,2013-01-16 14:16:00,
2013-01-16 08:21:00,23.6,16.5,29.92,SSW,207,10.0,24.0,74,0.00,,,0.00,30,Wunderground v.1.15,2013-01-16 14:21:00,
2013-01-16 08:26:00,23.6,16.5,29.91,South,186,14.0,24.0,74,0.00,,,0.00,19,Wunderground v.1.15,2013-01-16 14:26:00,
2013-01-16 08:31:00,23.6,16.5,29.91,South,172,13.0,18.0,74,0.00,,,0.00,23,Wunderground v.1.15,2013-01-16 14:31:00,
2013-01-16 08:36:00,23.6,16.5,29.91,SSW,211,14.0,21.0,74,0.00,,,0.00,33,Wunderground v.1.15,2013-01-16 14:36:00,
2013-01-16 08:41:00,23.7,16.9,29.91,South,171,11.0,21.0,75,0.00,,,0.00,46,Wunderground v.1.15,2013-01-16 14:41:00,
2013-01-16 08:46:00,23.9,16.8,29.90,SW,215,12.0,28.0,74,0.00,,,0.00,58,Wunderground v.1.15,2013-01-16 14:46:00,
2013-01-16 08:51:00,24.0,16.9,29.90,SSE,148,19.0,25.0,74,0.00,,,0.00,74,Wunderground v.1.15,2013-01-16 14:51:00,
2013-01-16 08:56:00,24.1,17.0,29.90,South,184,12.0,25.0,74,0.00,,,0.00,86,Wunderground v.1.15,2013-01-16 14:56:00,
2013-01-16 09:01:00,24.2,17.1,29.90,SSW,196,15.0,22.0,74,0.00,,,0.00,74,Wunderground v.1.15,2013-01-16 15:01:00,
2013-01-16 09:06:00,24.2,17.1,29.90,SSW,201,15.0,22.0,74,0.00,,,0.00,67,Wunderground v.1.15,2013-01-16 15:06:00,
2013-01-16 09:11:00,24.4,17.6,29.89,SSW,192,13.0,16.0,75,0.00,,,0.00,77,Wunderground v.1.15,2013-01-16 15:11:00,
2013-01-16 09:16:00,24.6,17.8,29.89,South,179,13.0,24.0,75,0.00,,,0.00,67,Wunderground v.1.15,2013-01-16 15:16:00,
2013-01-16 09:21:00,24.8,17.7,29.90,SW,222,17.0,20.0,74,0.00,,,0.00,56,Wunderground v.1.15,2013-01-16 15:21:00,
2013-01-16 09:26:00,25.0,18.2,29.90,SSW,210,13.0,20.0,75,0.00,,,0.00,44,Wunderground v.1.15,2013-01-16 15:26:00,
2013-01-16 09:31:00,25.2,18.1,29.89,SSW,210,11.0,17.0,74,0.00,,,0.00,60,Wunderground v.1.15,2013-01-16 15:31:00,
2013-01-16 09:36:00,25.6,18.5,29.89,SSW,213,16.0,19.0,74,0.00,,,0.00,58,Wunderground v.1.15,2013-01-16 15:36:00,
2013-01-16 09:41:00,25.9,18.7,29.89,SW,223,17.0,22.0,74,0.00,,,0.00,67,Wunderground v.1.15,2013-01-16 15:41:00,
2013-01-16 09:46:00,26.2,18.7,29.89,SSW,202,15.0,22.0,73,0.00,,,0.00,81,Wunderground v.1.15,2013-01-16 15:46:00,
2013-01-16 09:51:00,26.5,19.0,29.88,SW,219,20.0,22.0,73,0.00,,,0.00,77,Wunderground v.1.15,2013-01-16 15:51:00,
2013-01-16 09:56:00,26.8,18.7,29.89,SSW,194,15.0,26.0,71,0.00,,,0.00,91,Wunderground v.1.15,2013-01-16 15:56:00,
2013-01-16 10:01:00,27.0,18.8,29.90,SSW,211,12.0,18.0,71,0.00,,,0.00,109,Wunderground v.1.15,2013-01-16 16:01:00,
2013-01-16 10:06:00,26.9,19.1,29.90,SW,224,16.0,29.0,72,0.00,,,0.00,127,Wunderground v.1.15,2013-01-16 16:06:00,
2013-01-16 10:11:00,26.9,19.4,29.90,SW,231,17.0,21.0,73,0.00,,,0.00,148,Wunderground v.1.15,2013-01-16 16:11:00,
2013-01-16 10:16:00,26.9,19.4,29.89,SW,228,17.0,21.0,73,0.00,,,0.00,142,Wunderground v.1.15,2013-01-16 16:16:00,
2013-01-16 10:21:00,26.8,19.3,29.89,SSW,206,9.0,25.0,73,0.00,,,0.00,107,Wunderground v.1.15,2013-01-16 16:21:00,
2013-01-16 10:26:00,26.9,19.4,29.89,SSW,209,11.0,26.0,73,0.00,,,0.00,97,Wunderground v.1.15,2013-01-16 16:26:00,
2013-01-16 10:31:00,27.1,19.6,29.89,SSW,199,11.0,21.0,73,0.00,,,0.00,107,Wunderground v.1.15,2013-01-16 16:31:00,
2013-01-16 10:36:00,27.2,19.7,29.88,SW,224,16.0,23.0,73,0.00,,,0.00,165,Wunderground v.1.15,2013-01-16 16:36:00,
2013-01-16 10:41:00,27.5,20.3,29.88,SSW,207,18.0,22.0,74,0.00,,,0.00,142,Wunderground v.1.15,2013-01-16 16:41:00,
2013-01-16 10:46:00,27.7,20.2,29.88,SSW,201,11.0,22.0,73,0.00,,,0.00,141,Wunderground v.1.15,2013-01-16 16:46:00,
2013-01-16 10:51:00,28.1,20.9,29.88,SW,236,15.0,17.0,74,0.00,,,0.00,135,Wunderground v.1.15,2013-01-16 16:51:00,
2013-01-16 10:56:00,28.3,21.1,29.88,SW,234,13.0,21.0,74,0.00,,,0.00,141,Wunderground v.1.15,2013-01-16 16:56:00,
2013-01-16 11:01:00,28.4,20.8,29.88,SSW,205,13.0,23.0,73,0.00,,,0.00,130,Wunderground v.1.15,2013-01-16 17:01:00,
2013-01-16 11:06:00,28.4,21.2,29.88,SW,225,11.0,23.0,74,0.00,,,0.00,151,Wunderground v.1.15,2013-01-16 17:06:00,
2013-01-16 11:11:00,28.4,21.2,29.88,SW,219,10.0,21.0,74,0.00,,,0.00,199,Wunderground v.1.15,2013-01-16 17:11:00,
2013-01-16 11:16:00,28.6,21.7,29.88,SW,225,19.0,23.0,75,0.00,,,0.00,193,Wunderground v.1.15,2013-01-16 17:16:00,
2013-01-16 11:21:00,28.7,22.1,29.88,SW,228,14.0,20.0,76,0.00,,,0.00,206,Wunderground v.1.15,2013-01-16 17:21:00,
2013-01-16 11:26:00,29.0,22.4,29.87,SW,236,13.0,22.0,76,0.00,,,0.00,220,Wunderground v.1.15,2013-01-16 17:26:00,
2013-01-16 11:31:00,29.1,22.8,29.87,SW,224,24.0,25.0,77,0.00,,,0.00,193,Wunderground v.1.15,2013-01-16 17:31:00,
2013-01-16 11:36:00,28.9,22.6,29.86,SW,215,14.0,25.0,77,0.00,,,0.00,169,Wunderground v.1.15,2013-01-16 17:36:00,
2013-01-16 11:41:00,28.9,22.6,29.86,SW,221,14.0,22.0,77,0.00,,,0.00,165,Wunderground v.1.15,2013-01-16 17:41:00,
2013-01-16 11:46:00,29.0,23.0,29.86,SW,228,14.0,22.0,78,0.00,,,0.00,134,Wunderground v.1.15,2013-01-16 17:46:00,
2013-01-16 11:51:00,29.2,23.2,29.86,SW,229,13.0,17.0,78,0.00,,,0.00,165,Wunderground v.1.15,2013-01-16 17:51:00,
2013-01-16 11:56:00,29.4,23.4,29.86,SW,234,8.0,20.0,78,0.00,,,0.00,192,Wunderground v.1.15,2013-01-16 17:56:00,
2013-01-16 12:01:00,29.7,23.7,29.86,WSW,239,11.0,17.0,78,0.00,,,0.00,220,Wunderground v.1.15,2013-01-16 18:01:00,
2013-01-16 12:06:00,29.9,23.6,29.86,SW,235,22.0,22.0,77,0.00,,,0.00,209,Wunderground v.1.15,2013-01-16 18:06:00,
2013-01-16 12:11:00,30.1,23.8,29.86,SW,231,10.0,17.0,77,0.00,,,0.00,209,Wunderground v.1.15,2013-01-16 18:11:00,
2013-01-16 12:16:00,30.2,23.9,29.86,SW,227,14.0,21.0,77,0.00,,,0.00,192,Wunderground v.1.15,2013-01-16 18:16:00,
2013-01-16 12:21:00,30.4,24.4,29.86,SW,232,15.0,20.0,78,0.00,,,0.00,160,Wunderground v.1.15,2013-01-16 18:21:00,
2013-01-16 12:26:00,30.4,24.4,29.86,WSW,250,21.0,22.0,78,0.00,,,0.00,123,Wunderground v.1.15,2013-01-16 18:26:00,
2013-01-16 12:31:00,30.4,24.4,29.86,WSW,247,17.0,21.0,78,0.00,,,0.00,134,Wunderground v.1.15,2013-01-16 18:31:00,
2013-01-16 12:36:00,30.5,24.5,29.86,WSW,242,7.0,21.0,78,0.00,,,0.00,165,Wunderground v.1.15,2013-01-16 18:36:00,
2013-01-16 12:41:00,30.6,24.9,29.86,SW,227,15.0,19.0,79,0.00,,,0.00,192,Wunderground v.1.15,2013-01-16 18:41:00,
2013-01-16 12:46:00,30.7,24.7,29.86,SW,227,10.0,22.0,78,0.00,,,0.00,241,Wunderground v.1.15,2013-01-16 18:46:00,
2013-01-16 12:51:00,30.9,24.8,29.86,SW,220,11.0,19.0,78,0.00,,,0.00,160,Wunderground v.1.15,2013-01-16 18:51:00,
2013-01-16 12:56:00,30.8,24.7,29.86,SW,228,12.0,24.0,78,0.00,,,0.00,146,Wunderground v.1.15,2013-01-16 18:56:00,
2013-01-16 13:01:00,30.7,25.0,29.87,WSW,241,20.0,23.0,79,0.00,,,0.00,118,Wunderground v.1.15,2013-01-16 19:01:00,
2013-01-16 13:06:00,30.7,25.0,29.86,SW,234,13.0,23.0,79,0.00,,,0.00,111,Wunderground v.1.15,2013-01-16 19:06:00,
2013-01-16 13:11:00,30.7,25.3,29.86,WSW,238,8.0,18.0,80,0.00,,,0.00,123,Wunderground v.1.15,2013-01-16 19:11:00,
2013-01-16 13:16:00,30.8,25.4,29.87,SW,229,13.0,18.0,80,0.00,,,0.00,130,Wunderground v.1.15,2013-01-16 19:16:00,
2013-01-16 13:21:00,31.0,25.6,29.87,SW,223,7.0,12.0,80,0.00,,,0.00,134,Wunderground v.1.15,2013-01-16 19:21:00,
2013-01-16 13:26:00,31.1,25.7,29.87,SW,215,13.0,18.0,80,0.00,,,0.00,121,Wunderground v.1.15,2013-01-16 19:26:00,
2013-01-16 13:31:00,31.1,25.3,29.88,SW,223,9.0,15.0,79,0.00,,,0.00,132,Wunderground v.1.15,2013-01-16 19:31:00,
2013-01-16 13:36:00,31.1,25.3,29.88,WSW,240,11.0,17.0,79,0.00,,,0.00,125,Wunderground v.1.15,2013-01-16 19:36:00,
2013-01-16 13:41:00,31.3,25.8,29.88,WSW,238,10.0,15.0,80,0.00,,,0.00,107,Wunderground v.1.15,2013-01-16 19:41:00,
2013-01-16 13:46:00,31.4,25.9,29.88,SW,218,14.0,18.0,80,0.00,,,0.00,88,Wunderground v.1.15,2013-01-16 19:46:00,
2013-01-16 13:51:00,31.5,26.0,29.88,SW,235,14.0,18.0,80,0.00,,,0.00,81,Wunderground v.1.15,2013-01-16 19:51:00,
2013-01-16 13:56:00,31.5,26.0,29.89,SW,224,11.0,18.0,80,0.00,,,0.00,81,Wunderground v.1.15,2013-01-16 19:56:00,
2013-01-16 14:01:00,31.6,26.1,29.89,WSW,238,10.0,20.0,80,0.00,,,0.00,77,Wunderground v.1.15,2013-01-16 20:01:00,
2013-01-16 14:06:00,31.7,26.2,29.89,WSW,242,8.0,20.0,80,0.00,,,0.00,83,Wunderground v.1.15,2013-01-16 20:06:00,
2013-01-16 14:11:00,31.9,26.4,29.90,SW,235,11.0,20.0,80,0.00,,,0.00,79,Wunderground v.1.15,2013-01-16 20:11:00,
2013-01-16 14:16:00,31.9,26.4,29.90,SW,236,8.0,20.0,80,0.00,,,0.00,79,Wunderground v.1.15,2013-01-16 20:16:00,
2013-01-16 14:21:00,32.0,26.5,29.91,SW,234,13.0,17.0,80,0.00,,,0.00,76,Wunderground v.1.15,2013-01-16 20:21:00,
2013-01-16 14:26:00,32.1,26.6,29.91,West,266,5.0,18.0,80,0.00,,,0.00,77,Wunderground v.1.15,2013-01-16 20:26:00,
2013-01-16 14:31:00,32.1,26.6,29.91,WSW,252,8.0,13.0,80,0.00,,,0.00,86,Wunderground v.1.15,2013-01-16 20:31:00,
2013-01-16 14:36:00,32.2,27.0,29.91,WSW,242,15.0,19.0,81,0.00,,,0.00,72,Wunderground v.1.15,2013-01-16 20:36:00,
2013-01-16 14:41:00,32.3,27.1,29.90,WSW,253,7.0,11.0,81,0.00,,,0.00,58,Wunderground v.1.15,2013-01-16 20:41:00,
2013-01-16 14:46:00,32.4,27.2,29.90,West,259,7.0,12.0,81,0.00,,,0.00,53,Wunderground v.1.15,2013-01-16 20:46:00,
2013-01-16 14:51:00,32.4,27.2,29.90,WSW,254,4.0,20.0,81,0.00,,,0.00,58,Wunderground v.1.15,2013-01-16 20:51:00,
2013-01-16 14:56:00,32.3,27.1,29.91,WSW,256,5.0,20.0,81,0.00,,,0.00,53,Wunderground v.1.15,2013-01-16 20:56:00,
2013-01-16 15:01:00,32.3,27.1,29.91,WSW,246,6.0,17.0,81,0.00,,,0.00,49,Wunderground v.1.15,2013-01-16 21:01:00,
2013-01-16 15:06:00,32.4,27.2,29.91,WSW,238,10.0,17.0,81,0.00,,,0.00,39,Wunderground v.1.15,2013-01-16 21:06:00,
2013-01-16 15:11:00,32.4,27.5,29.92,SW,232,6.0,13.0,82,0.00,,,0.00,46,Wunderground v.1.15,2013-01-16 21:11:00,
2013-01-16 15:16:00,32.3,27.4,29.92,WSW,241,15.0,15.0,82,0.00,,,0.00,35,Wunderground v.1.15,2013-01-16 21:16:00,
2013-01-16 15:21:00,32.3,27.7,29.93,SW,234,12.0,13.0,83,0.00,,,0.00,30,Wunderground v.1.15,2013-01-16 21:21:00,
2013-01-16 15:26:00,32.2,27.9,29.93,WSW,244,15.0,15.0,84,0.00,,,0.00,25,Wunderground v.1.15,2013-01-16 21:26:00,
2013-01-16 15:31:00,32.1,27.8,29.94,WSW,242,11.0,14.0,84,0.00,,,0.00,19,Wunderground v.1.15,2013-01-16 21:31:00,
2013-01-16 15:36:00,32.1,27.8,29.94,SW,236,11.0,21.0,84,0.00,,,0.00,23,Wunderground v.1.15,2013-01-16 21:36:00,
2013-01-16 15:41:00,32.1,28.1,29.95,SW,235,6.0,13.0,85,0.00,,,0.00,21,Wunderground v.1.15,2013-01-16 21:41:00,
2013-01-16 15:46:00,32.1,28.1,29.95,WSW,245,7.0,18.0,85,0.00,,,0.00,21,Wunderground v.1.15,2013-01-16 21:46:00,
2013-01-16 15:51:00,32.1,28.1,29.95,WSW,257,5.0,10.0,85,0.00,,,0.00,16,Wunderground v.1.15,2013-01-16 21:51:00,
2013-01-16 15:56:00,32.0,28.0,29.96,SW,225,10.0,13.0,85,0.00,,,0.00,11,Wunderground v.1.15,2013-01-16 21:56:00,
2013-01-16 16:01:00,32.0,28.0,29.96,SSW,213,16.0,17.0,85,0.00,,,0.00,9,Wunderground v.1.15,2013-01-16 22:01:00,
2013-01-16 16:06:00,32.1,28.1,29.96,SW,236,8.0,17.0,85,0.00,,,0.00,12,Wunderground v.1.15,2013-01-16 22:06:00,
2013-01-16 16:11:00,32.0,28.0,29.96,WSW,239,6.0,13.0,85,0.00,,,0.00,11,Wunderground v.1.15,2013-01-16 22:11:00,
2013-01-16 16:16:00,32.0,28.0,29.96,SW,236,7.0,15.0,85,0.00,,,0.00,7,Wunderground v.1.15,2013-01-16 22:16:00,
2013-01-16 16:21:00,32.0,28.3,29.96,SW,219,5.0,11.0,86,0.00,,,0.00,7,Wunderground v.1.15,2013-01-16 22:21:00,
2013-01-16 16:26:00,31.9,28.2,29.97,WSW,238,12.0,15.0,86,0.00,,,0.00,5,Wunderground v.1.15,2013-01-16 22:26:00,
2013-01-16 16:31:00,32.0,28.3,29.97,WSW,238,6.0,13.0,86,0.00,,,0.00,0,Wunderground v.1.15,2013-01-16 22:31:00,
2013-01-16 16:36:00,32.0,28.3,29.98,WSW,245,12.0,16.0,86,0.00,,,0.00,0,Wunderground v.1.15,2013-01-16 22:36:00,
2013-01-16 16:41:00,32.0,28.3,29.98,WSW,250,5.0,14.0,86,0.00,,,0.00,0,Wunderground v.1.15,2013-01-16 22:41:00,
2013-01-16 16:46:00,31.9,28.5,29.98,WSW,240,11.0,14.0,87,0.00,,,0.00,0,Wunderground v.1.15,2013-01-16 22:46:00,
2013-01-16 16:51:00,31.9,28.5,29.99,WSW,244,11.0,13.0,87,0.00,,,0.00,0,Wunderground v.1.15,2013-01-16 22:51:00,
2013-01-16 16:56:00,31.9,28.8,29.99,WSW,239,5.0,13.0,88,0.00,,,0.00,0,Wunderground v.1.15,2013-01-16 22:56:00,
2013-01-16 17:01:00,31.8,28.7,30.00,SW,234,12.0,15.0,88,0.00,,,0.00,0,Wunderground v.1.15,2013-01-16 23:01:00,
2013-01-16 17:06:00,31.7,28.6,30.00,SW,235,5.0,15.0,88,0.00,,,0.00,0,Wunderground v.1.15,2013-01-16 23:06:00,
2013-01-16 17:11:00,31.5,28.6,30.00,WSW,242,7.0,11.0,89,0.00,,,0.00,0,Wunderground v.1.15,2013-01-16 23:11:00,
2013-01-16 17:16:00,31.4,28.8,30.00,WSW,240,8.0,12.0,90,0.00,,,0.00,0,Wunderground v.1.15,2013-01-16 23:16:00,
2013-01-16 17:21:00,31.3,28.7,30.01,WSW,243,4.0,10.0,90,0.00,,,0.00,0,Wunderground v.1.15,2013-01-16 23:21:00,
2013-01-16 17:26:00,31.2,28.9,30.01,SW,235,5.0,12.0,91,0.00,,,0.00,0,Wunderground v.1.15,2013-01-16 23:26:00,
2013-01-16 17:31:00,31.1,28.8,30.01,SW,232,6.0,11.0,91,0.00,,,0.00,0,Wunderground v.1.15,2013-01-16 23:31:00,
2013-01-16 17:36:00,31.1,28.8,30.01,WSW,240,6.0,14.0,91,0.00,,,0.00,0,Wunderground v.1.15,2013-01-16 23:36:00,
2013-01-16 17:41:00,31.1,29.0,30.01,SW,235,6.0,8.0,92,0.00,,,0.00,0,Wunderground v.1.15,2013-01-16 23:41:00,
2013-01-16 17:46:00,31.1,29.0,30.02,WSW,250,7.0,13.0,92,0.00,,,0.00,0,Wunderground v.1.15,2013-01-16 23:46:00,
2013-01-16 17:51:00,31.1,29.0,30.02,WSW,240,5.0,10.0,92,0.00,,,0.00,0,Wunderground v.1.15,2013-01-16 23:51:00,
2013-01-16 17:56:00,31.0,28.9,30.02,WSW,250,6.0,12.0,92,0.00,,,0.00,0,Wunderground v.1.15,2013-01-16 23:56:00,
2013-01-16 18:01:00,31.0,28.9,30.01,WSW,244,5.0,12.0,92,0.00,,,0.00,0,Wunderground v.1.15,2013-01-17 00:01:00,
2013-01-16 18:06:00,31.0,28.9,30.02,WSW,240,5.0,12.0,92,0.00,,,0.00,0,Wunderground v.1.15,2013-01-17 00:06:00,
2013-01-16 18:11:00,31.0,28.9,30.03,WSW,239,6.0,8.0,92,0.00,,,0.00,0,Wunderground v.1.15,2013-01-17 00:11:00,
2013-01-16 18:16:00,30.9,28.9,30.04,WSW,238,5.0,8.0,92,0.00,,,0.00,0,Wunderground v.1.15,2013-01-17 00:16:00,
2013-01-16 18:21:00,30.9,29.1,30.04,SW,236,6.0,11.0,93,0.00,,,0.00,0,Wunderground v.1.15,2013-01-17 00:21:00,
2013-01-16 18:26:00,30.9,29.1,30.04,WSW,238,6.0,11.0,93,0.00,,,0.00,0,Wunderground v.1.15,2013-01-17 00:26:00,
2013-01-16 18:32:00,30.9,29.1,30.05,SW,235,10.0,10.0,93,0.00,,,0.00,0,Wunderground v.1.15,2013-01-17 00:32:00,
2013-01-16 18:37:00,30.9,29.1,30.05,WSW,240,4.0,10.0,93,0.00,,,0.00,0,Wunderground v.1.15,2013-01-17 00:37:00,
2013-01-16 18:42:00,30.8,29.0,30.05,WSW,252,8.0,10.0,93,0.00,,,0.00,0,Wunderground v.1.15,2013-01-17 00:42:00,
2013-01-16 18:47:00,30.8,29.0,30.05,SW,232,5.0,11.0,93,0.00,,,0.00,0,Wunderground v.1.15,2013-01-17 00:47:00,
2013-01-16 18:51:00,30.7,28.9,30.06,WSW,237,7.0,10.0,93,0.00,,,0.00,0,Wunderground v.1.15,2013-01-17 00:51:00,
2013-01-16 18:56:00,30.7,28.9,30.06,SW,227,11.0,11.0,93,0.00,,,0.00,0,Wunderground v.1.15,2013-01-17 00:56:00,
2013-01-16 19:01:00,30.7,28.9,30.06,WSW,252,5.0,8.0,93,0.00,,,0.00,0,Wunderground v.1.15,2013-01-17 01:01:00,
2013-01-16 19:06:00,30.7,28.9,30.06,WSW,246,6.0,8.0,93,0.00,,,0.00,0,Wunderground v.1.15,2013-01-17 01:06:00,
2013-01-16 19:11:00,30.7,28.9,30.06,WSW,250,5.0,8.0,93,0.00,,,0.00,0,Wunderground v.1.15,2013-01-17 01:11:00,
2013-01-16 19:16:00,30.7,28.9,30.07,WSW,242,2.0,8.0,93,0.00,,,0.00,0,Wunderground v.1.15,2013-01-17 01:16:00,
2013-01-16 19:21:00,30.7,28.9,30.07,WSW,242,3.0,8.0,93,0.00,,,0.00,0,Wunderground v.1.15,2013-01-17 01:21:00,
2013-01-16 19:26:00,30.8,29.3,30.07,WSW,253,4.0,8.0,94,0.00,,,0.00,0,Wunderground v.1.15,2013-01-17 01:26:00,
2013-01-16 19:31:00,30.9,29.4,30.08,WSW,246,6.0,10.0,94,0.00,,,0.00,0,Wunderground v.1.15,2013-01-17 01:31:00,
2013-01-16 19:36:00,31.0,29.2,30.08,WSW,241,2.0,10.0,93,0.00,,,0.00,0,Wunderground v.1.15,2013-01-17 01:36:00,
2013-01-16 19:41:00,31.0,29.2,30.08,WSW,238,5.0,7.0,93,0.00,,,0.00,0,Wunderground v.1.15,2013-01-17 01:41:00,
2013-01-16 19:46:00,31.1,29.3,30.08,WSW,246,2.0,7.0,93,0.00,,,0.00,0,Wunderground v.1.15,2013-01-17 01:46:00,
2013-01-16 19:51:00,31.1,29.3,30.09,WSW,247,5.0,5.0,93,0.00,,,0.00,0,Wunderground v.1.15,2013-01-17 01:51:00,
2013-01-16 19:56:00,31.2,29.4,30.09,WSW,251,3.0,9.0,93,0.00,,,0.00,0,Wunderground v.1.15,2013-01-17 01:56:00,
2013-01-16 20:01:00,31.2,29.4,30.09,WSW,246,3.0,11.0,93,0.00,,,0.00,0,Wunderground v.1.15,2013-01-17 02:01:00,
2013-01-16 20:06:00,31.4,29.6,30.10,West,263,2.0,11.0,93,0.00,,,0.00,0,Wunderground v.1.15,2013-01-17 02:06:00,
2013-01-16 20:11:00,31.5,29.4,30.10,WNW,288,0.0,5.0,92,0.00,,,0.00,0,Wunderground v.1.15,2013-01-17 02:11:00,
2013-01-16 20:16:00,31.5,29.4,30.10,NW,323,6.0,20.0,92,0.00,,,0.00,0,Wunderground v.1.15,2013-01-17 02:16:00,
2013-01-16 20:21:00,31.6,29.0,30.10,WNW,291,5.0,14.0,90,0.00,,,0.00,0,Wunderground v.1.15,2013-01-17 02:21:00,
2013-01-16 20:26:00,31.6,28.7,30.10,WNW,286,13.0,14.0,89,0.00,,,0.00,0,Wunderground v.1.15,2013-01-17 02:26:00,
2013-01-16 20:31:00,31.7,28.6,30.11,WNW,282,5.0,14.0,88,0.00,,,0.00,0,Wunderground v.1.15,2013-01-17 02:31:00,
2013-01-16 20:36:00,31.7,28.3,30.11,WNW,294,5.0,15.0,87,0.00,,,0.00,0,Wunderground v.1.15,2013-01-17 02:36:00,
2013-01-16 20:41:00,31.7,28.0,30.11,WNW,298,20.0,20.0,86,0.00,,,0.00,0,Wunderground v.1.15,2013-01-17 02:41:00,
2013-01-16 20:46:00,31.7,27.4,30.11,WNW,300,7.0,20.0,84,0.00,,,0.00,0,Wunderground v.1.15,2013-01-17 02:46:00,
2013-01-16 20:51:00,31.7,27.1,30.11,WNW,296,7.0,12.0,83,0.00,,,0.00,0,Wunderground v.1.15,2013-01-17 02:51:00,
2013-01-16 20:56:00,31.6,26.1,30.11,West,268,13.0,21.0,80,0.00,,,0.00,0,Wunderground v.1.15,2013-01-17 02:56:00,
2013-01-16 21:02:00,31.4,24.4,30.12,WSW,254,8.0,20.0,75,0.00,,,0.00,0,Wunderground v.1.15,2013-01-17 03:02:00,
2013-01-16 21:07:00,31.0,22.7,30.12,WNW,296,19.0,20.0,71,0.00,,,0.00,0,Wunderground v.1.15,2013-01-17 03:07:00,
2013-01-16 21:12:00,30.6,22.0,30.13,NW,305,7.0,15.0,70,0.00,,,0.00,0,Wunderground v.1.15,2013-01-17 03:12:00,
2013-01-16 21:17:00,30.2,21.6,30.13,West,275,8.0,18.0,70,0.00,,,0.00,0,Wunderground v.1.15,2013-01-17 03:17:00,
2013-01-16 21:22:00,29.9,21.6,30.14,West,277,8.0,14.0,71,0.00,,,0.00,0,Wunderground v.1.15,2013-01-17 03:22:00,
2013-01-16 21:27:00,29.6,21.3,30.15,WNW,297,6.0,19.0,71,0.00,,,0.00,0,Wunderground v.1.15,2013-01-17 03:27:00,
2013-01-16 21:32:00,29.3,21.4,30.15,WNW,298,2.0,11.0,72,0.00,,,0.00,0,Wunderground v.1.15,2013-01-17 03:32:00,
2013-01-16 21:37:00,29.0,21.1,30.15,WNW,292,9.0,18.0,72,0.00,,,0.00,0,Wunderground v.1.15,2013-01-17 03:37:00,
2013-01-16 21:42:00,28.8,20.9,30.16,WNW,298,4.0,11.0,72,0.00,,,0.00,0,Wunderground v.1.15,2013-01-17 03:42:00,
2013-01-16 21:47:00,28.5,20.3,30.17,West,268,5.0,14.0,71,0.00,,,0.00,0,Wunderground v.1.15,2013-01-17 03:47:00,
2013-01-16 21:52:00,28.4,19.9,30.17,West,272,5.0,18.0,70,0.00,,,0.00,0,Wunderground v.1.15,2013-01-17 03:52:00,
2013-01-16 21:57:00,28.2,19.3,30.17,NW,321,7.0,18.0,69,0.00,,,0.00,0,Wunderground v.1.15,2013-01-17 03:57:00,
2013-01-16 22:02:00,28.1,19.2,30.16,WNW,299,4.0,12.0,69,0.00,,,0.00,0,Wunderground v.1.15,2013-01-17 04:02:00,
2013-01-16 22:07:00,27.9,19.0,30.16,WNW,295,2.0,12.0,69,0.00,,,0.00,0,Wunderground v.1.15,2013-01-17 04:07:00,
2013-01-16 22:12:00,27.7,18.8,30.16,WNW,298,8.0,13.0,69,0.00,,,0.00,0,Wunderground v.1.15,2013-01-17 04:12:00,
2013-01-16 22:17:00,27.5,18.7,30.16,NW,315,4.0,15.0,69,0.00,,,0.00,0,Wunderground v.1.15,2013-01-17 04:17:00,
2013-01-16 22:22:00,27.3,18.5,30.16,WNW,302,4.0,7.0,69,0.00,,,0.00,0,Wunderground v.1.15,2013-01-17 04:22:00,
2013-01-16 22:27:00,27.1,18.3,30.17,NW,315,2.0,8.0,69,0.00,,,0.00,0,Wunderground v.1.15,2013-01-17 04:27:00,
2013-01-16 22:32:00,26.9,18.4,30.17,West,281,2.0,7.0,70,0.00,,,0.00,0,Wunderground v.1.15,2013-01-17 04:32:00,
2013-01-16 22:37:00,26.6,18.1,30.18,WNW,293,1.0,7.0,70,0.00,,,0.00,0,Wunderground v.1.15,2013-01-17 04:37:00,
2013-01-16 22:42:00,26.3,17.8,30.18,WNW,288,1.0,4.0,70,0.00,,,0.00,0,Wunderground v.1.15,2013-01-17 04:42:00,
2013-01-16 22:47:00,26.0,17.6,30.19,NW,326,0.0,11.0,70,0.00,,,0.00,0,Wunderground v.1.15,2013-01-17 04:47:00,
2013-01-16 22:52:00,25.8,17.4,30.19,WNW,292,4.0,7.0,70,0.00,,,0.00,0,Wunderground v.1.15,2013-01-17 04:52:00,
2013-01-16 22:57:00,25.6,17.2,30.19,NW,306,2.0,7.0,70,0.00,,,0.00,0,Wunderground v.1.15,2013-01-17 04:57:00,
2013-01-16 23:00:00,25.5,17.1,30.19,WNW,297,4.0,4.0,70,0.00,,,0.00,0,Wunderground v.1.15,2013-01-17 05:00:00,
2013-01-16 23:03:00,25.5,16.7,30.19,WNW,295,5.0,7.0,69,0.00,,,0.00,0,Wunderground v.1.15,2013-01-17 05:03:00,
2013-01-16 23:08:00,25.4,16.6,30.19,WNW,290,6.0,11.0,69,0.00,,,0.00,0,Wunderground v.1.15,2013-01-17 05:08:00,
2013-01-16 23:13:00,25.2,16.5,30.19,WNW,286,5.0,12.0,69,0.00,,,0.00,0,Wunderground v.1.15,2013-01-17 05:13:00,
2013-01-16 23:18:00,25.0,15.9,30.20,WNW,293,5.0,12.0,68,0.00,,,0.00,0,Wunderground v.1.15,2013-01-17 05:18:00,
2013-01-16 23:23:00,24.9,15.8,30.20,West,261,3.0,12.0,68,0.00,,,0.00,0,Wunderground v.1.15,2013-01-17 05:23:00,
2013-01-16 23:28:00,24.7,15.6,30.21,WNW,298,8.0,12.0,68,0.00,,,0.00,0,Wunderground v.1.15,2013-01-17 05:28:00,
2013-01-16 23:33:00,24.5,15.1,30.21,WSW,257,7.0,11.0,67,0.00,,,0.00,0,Wunderground v.1.15,2013-01-17 05:33:00,
2013-01-16 23:38:00,24.4,15.0,30.22,West,269,10.0,11.0,67,0.00,,,0.00,0,Wunderground v.1.15,2013-01-17 05:38:00,
2013-01-16 23:43:00,24.2,14.8,30.22,WNW,302,4.0,11.0,67,0.00,,,0.00,0,Wunderground v.1.15,2013-01-17 05:43:00,
2013-01-16 23:48:00,24.1,14.7,30.22,West,272,2.0,11.0,67,0.00,,,0.00,0,Wunderground v.1.15,2013-01-17 05:48:00,
2013-01-16 23:53:00,23.8,14.4,30.23,WNW,302,1.0,15.0,67,0.00,,,0.00,0,Wunderground v.1.15,2013-01-17 05:53:00,
2013-01-16 23:58:00,23.6,14.2,30.23,West,281,4.0,15.0,67,0.00,,,0.00,0,Wunderground v.1.15,2013-01-17 05:58:00,